Weather History for CWGB - April, 2013

Change the Weather History Date:

Monday, April 8, 2013

  Actual Average Record
Temperature  
Mean Temperature 48 °F -  
Max Temperature 51 °F - - ()
Min Temperature 45 °F - - ()
Degree Days  
Heating Degree Days 17    
Moisture  
Dew Point 43 °F    
Average Humidity 78    
Maximum Humidity 87    
Minimum Humidity 65    
Precipitation  
Precipitation 0.00 in - - ()
Sea Level Pressure  
Sea Level Pressure 30.04 in    
Wind  
Wind Speed 13 mph ()    
Max Wind Speed 20 mph    
Max Gust Speed 25 mph    
T = Trace of Precipitation, MM = Missing Value Source: Averaged Metar Reports

Daily Weather History Graph

Daily Weather History Graph

Search for Another Location

Airport or City:

Trip Planner

Search our weather history database for the weather conditions in past years. The results will help you decide how hot, cold, wet, or windy it might be!

Date:

Astronomy

Apr. 08, 2013 Rise Set
Actual Time 6:38 AM PDT 7:59 PM PDT
Civil Twilight 6:05 AM PDT 8:32 PM PDT
Nautical Twilight 5:25 AM PDT 9:12 PM PDT
Astronomical Twilight 4:42 AM PDT 9:55 PM PDT
Moon 5:39 AM PDT (4/8) 6:35 PM PDT (4/8)
Length of Visible Light 14h 26m
Length of Day
13h 20m
Waning Crescent, 3% of the Moon is Illuminated
Apr 8
Waning Crescent
Apr 10
New
Apr 18
First Quarter
Apr 25
Full
May 2
Last Quarter

Hourly Weather History & Observations

Time (PDT) Temp. Dew Point Humidity Pressure Visibility Wind Dir Wind Speed Gust Speed Precip Events Conditions
12:00 AM 48.9 °F 43.0 °F 80% 29.83 in - WNW 16.1 mph - N/A   Unknown
1:00 AM 48.7 °F 43.2 °F 81% 29.86 in - WNW 18.4 mph - N/A   Unknown
2:00 AM 48.4 °F 43.0 °F 82% 29.87 in - West 19.6 mph - N/A   Unknown
3:00 AM 48.0 °F 43.0 °F 83% 29.88 in - West 18.4 mph 25.3 mph N/A   Unknown
4:00 AM 47.8 °F 41.7 °F 79% 29.91 in - West 15.0 mph - N/A   Unknown
5:00 AM 48 °F 41 °F 70% 29.93 in - West 18.4 mph - -  
5:00 AM 47.7 °F 41.2 °F 78% 29.93 in - West 18.4 mph - N/A   Unknown
6:00 AM 47.5 °F 41.2 °F 79% 29.96 in - West 18.4 mph - N/A   Unknown
7:00 AM 46.9 °F 40.3 °F 78% 29.99 in - WSW 12.7 mph - N/A   Unknown
8:00 AM 46.9 °F 39.9 °F 77% 30.01 in - West 12.7 mph - N/A   Unknown
9:00 AM 47.3 °F 39.6 °F 74% 30.03 in - West 11.5 mph - N/A   Unknown
10:00 AM 47.8 °F 39.7 °F 74% 30.05 in - West 9.2 mph - N/A   Unknown
11:00 AM 49 °F 41 °F 65% 30.07 in - West 6.9 mph - -  
11:00 AM 49.1 °F 40.8 °F 73% 30.07 in - West 6.9 mph - N/A   Unknown
12:00 PM 51.8 °F 43.0 °F 72% 30.09 in - WNW 3.5 mph - N/A   Unknown
1:00 PM 49.8 °F 40.8 °F 71% 30.11 in - NNE 3.5 mph - N/A   Unknown
2:00 PM 50.2 °F 41.4 °F 72% 30.11 in - East 6.9 mph - N/A   Unknown
3:00 PM 51.1 °F 43.3 °F 75% 30.11 in - ESE 9.2 mph - N/A   Unknown
4:00 PM 49.8 °F 44.6 °F 82% 30.11 in - ESE 11.5 mph - N/A   Unknown
5:00 PM 51 °F 44 °F 70% 30.11 in - ESE 12.7 mph - -  
5:00 PM 51.1 °F 44.1 °F 77% 30.11 in - ESE 12.7 mph - N/A   Unknown
6:00 PM 51.1 °F 45.7 °F 82% 30.12 in - ESE 12.7 mph - N/A   Unknown
7:00 PM 51.1 °F 45.5 °F 81% 30.12 in - East 15.0 mph - N/A   Unknown
8:00 PM 50.4 °F 46.0 °F 85% 30.13 in - East 15.0 mph - N/A   Unknown
9:00 PM 50.2 °F 46.4 °F 87% 30.15 in - East 17.3 mph - N/A   Unknown
10:00 PM 49.6 °F 45.7 °F 86% 30.17 in - ESE 17.3 mph - N/A   Unknown
11:00 PM 49 °F 45 °F 83% 30.18 in - ESE 17.3 mph - -  
11:00 PM 49.3 °F 45.3 °F 86% 30.18 in - ESE 17.3 mph - N/A   Unknown